Location: Stanford
(52.2833°N, 2.4333°W)
Time: 20:14:30
(UTC+00:00)

USA 234 - Pass Details

Date: 22 January 2021
Orbit: 1100 x 1107 km, 123.0° (Epoch: 26 February)

Event Time Altitude Azimuth Distance (km) Brightness Sun altitude
Exits shadow 18:58:33 36° 84° (E) 1,682 3.7 -20.9°
Maximum altitude 19:01:22 67° 14° (NNE) 1,188 3.3 -21.3°
Drops below altitude 10° 19:07:51 10° 294° (WNW) 2,969 6.4 -22.3°
Sets 19:10:21 0° 291° (WNW) 3,928 7.3 -22.7°
